Little Rock, AR (72216)

11:34 AM CDT on August 04, 2015 (GMT -0500)
Central Business Equipment | | Change Station
CLOSE
Current Station
Personal Weather Station
Location: Sherwood, AR
Elevation: 288 ft
Nearby Weather Stations

Elev 288 ft 34.82 °N, 92.20 °W | Updated 3 seconds ago

Clear
Clear
93.9 °F
Feels Like 103 °F
N
4.9
Wind Variable Wind from SE
Gusts 7.4 mph

Today
High -- | Low -- °F
--% Chance of Precip.
Yesterday
High -- | Low -- °F
Precip. -- in
6:20 AM 8:08 PM
Waning Gibbous, 76% visible
Pressure 30.01 in
Visibility 10.0 miles
Clouds Few 3500 ft
Scattered Clouds 25000 ft
Heat Index 103 °F
Dew Point 73 °F
Humidity 51%
Rainfall 0.00 in
Snow Depth Not available.
UV 7 out of 12
Pollen 5.40 out of 12
Air Quality Not available.
Flu Activity Not available.
METAR KLIT 041553Z 15005KT 10SM FEW035 SCT250 33/21 A3001 RMK AO2 SLP160 T03280206

More Conditions Fewer Conditions

Pressure 30.01 in
Visibility 10.0 miles
Clouds Few 3500 ft
Scattered Clouds 25000 ft
Heat Index 103 °F
Dew Point 73 °F
Humidity 51%
Rainfall 0.00 in
Snow Depth Not available.
UV 7 out of 12
Pollen 5.40 out of 12
Air Quality Not available.
Flu Activity Not available.
METAR KLIT 041553Z 15005KT 10SM FEW035 SCT250 33/21 A3001 RMK AO2 SLP160 T03280206

More Conditions Fewer Conditions

10-Day Weather Forecast

×

Almanac

Astronomy

Aug. 04, 2015 Rise Set
Actual Time
Civil Twilight
Nautical Twilight
Astronomical Twilight
Moon
Length of Visible Light
Length of Day
Tomorrow will be .
, % of the Moon is Illuminated

Today's Extremes

State Highs State Lows

Community

WunderPhotos

Upload Photos

1,843,919 photos uploaded!

WunderBlogs® & News

Nearby

Air Quality

  Air Quality AQ Index Pollutant
Not available.

Snow Depth

Station Depth Elevation

Earthquake Activity

City Distance Mag. Time & Date
Minimum magnitude displayed is 2.5.

Coastal Water Temperatures

Place Temperature

Stations

Nearby Weather Stations

Station Location Temp. Windchill Dew Point Humidity Wind Precip. Elev Updated Type